1270 visiteurs
Prévisions de votre ville :
Vigilance : 8 départements Mise à jour le 17/12/2018 à 06:00 - Voir la carte

Paris Roissy CDG (95380) le 17/12/2018 à 07:00 Choisir station

5°C 93 % SO Vit. moyenne 15 kmh/h

Relevés météo quotidiens pour la station de :

UTC
S: Synop
M: Metar
Loc T°C
(°C)
Td
(°C)
HR
(%)
Vis
(km)
Néb
(octa)
Vent
(km/h)
Pression
(mb)
Précipitations
(mm)
Temps
              MOY
10 min
DIR RAF 1h MESURE VAR SUR 3h    
S 00 h 02h 18.0 14.7 81 10 /8 0 6 1016.3 +1.2/3h 0.0/6h - 0.0/3h -
S 01 h 03h 17.6 15.0 85 20 /8 0 4 1016.4 +0.7/3h 0.0/1h
S 02 h 04h 18.1 15.5 85 20 /8 2 6 1017.0 +0.9/3h 0.0/1h -
S 03 h 05h 17.8 15.2 85 20 /8 2 6 1016.7 +0.3/3h 0.0/1h -
S 04 h 06h 17.4 15.6 89 20 /8 0 4 1017.0 +0.6/3h 0.0/1h -
S 05 h 07h 18.0 14.7 81 20 /8 2 6 1017.4 +0.3/3h 0.0/1h -
S 06 h 08h 19.8 14.2 70 13 /8 6 20 1017.9 +1.3/3h 0.0/3h - 3.5/24h
S 07 h 09h 20.2 14.3 69 20 /8 4 15 1018.7 +1.8/3h 0.0/1h
S 08 h 10h 22.3 14.4 61 20 /8 4 11 1019.2 +2.0/3h 0.0/1h -
S 09 h 11h 24.0 14.1 54 20 /8 6 15 1019.5 +1.8/3h 0.0/3h -
S 10 h 12h 25.5 14.3 50 20 /8 6 19 1019.6 +1.2/3h 0.0/1h -
S 11 h 13h 26.7 14.1 46 20 /8 11 30 1019.5 +0.5/3h 0.0/1h
S 12 h 14h 27.7 14.0 43 20 /8 11 28 1019.1 -0.2/3h 0.0/6h - 0.0/3h
S 13 h 15h 28.1 13.6 41 20 /8 13 30 1018.9 -0.6/3h 0.0/1h
S 14 h 16h 28.3 13.8 41 20 /8 7 17 1019.1 -0.3/3h 0.0/1h -
S 15 h 17h 28.2 14.1 42 20 /8 6 15 1019.1 0.0/3h 0.0/3h -
S 16 h 18h 26.9 14.0 45 20 /8 6 15 1019.2 +0.2/3h 0.0/1h -
S 17 h 19h 25.1 14.2 51 20 /8 9 30 1019.6 +0.3/3h 0.0/1h
S 18 h 20h 23.3 14.6 58 20 /8 7 19 1020.6 +1.2/3h 0.0/12h - 0.0/3h
S 19 h 21h 22.0 14.9 64 20 /8 7 19 1021.0 +1.6/3h 0.0/1h
S 20 h 22h 20.8 14.9 69 20 /8 6 19 1021.7 +1.9/3h 0.0/1h
S 21 h 23h 20.1 14.9 72 20 /8 4 7 1021.9 +1.2/3h 0.0/3h -
S 22 h 00h 18.9 14.8 77 20 /8 0 6 1021.8 +0.6/3h 0.0/1h -
S 23 h 01h 17.8 14.7 82 20 /8 2 4 1021.3 -0.5/3h 0.0/1h -
evolution des temperatures
cumul des precipitations
vent moyen et rafales
pression atmospherique

Un tiret (-) signifie que les données ne sont pas disponibles.

Passez la souris sur les pictos temps pour avoir plus de précisions. Passez les flèches sur l'icône de la direction du vent pour voir la direction précise en degrés.

Les données de l'heure en cours sont disponibles à partir de H+15 minutes.


S signifie station Synop, plus complète qu'une station Metar (M). Il y a +1h de différence entre l'heure UTC et l'heure légale en hiver et +2h en été.

Td est la mesure du point de rosée.

HR est l'humidité relative/p>

Vis est la visibilité

Néb est la nébulosité du ciel (couverture nuageuse) exprimée en octas (de 0/8 à 8/8).

Vent moy 10 min donne le vent moyen sur les 10 minutes qui précèdent le relevé.

Vent raf 1h donne la rafale maximale mesurée dans l'heure qui précède le relevé.


Les données les plus anciennes remontent à avril 2014.

Les données présentées sur cette page proviennent des stations météo officielles. Les relevés sont effectués aux normes en vigueur (anémomètre à 10m de haut, thermomètre sous abri normalisé à 2m du sol...)

Météo 60 décline toute responsabilité en cas d'absence de données, d'erreurs, de mauvaise utilisation ou interprétation et n'est pas habilité à fournir des certificats intempéries.